Location: Cahas Mountain Overlook
(37.0833°N, 80.1000°W)
Time: 11:52:47
(UTC-04:00)

A-11 Canister half - Pass Details

Date: 17 February 2026
Orbit: 1524 x 1683 km, 47.3° (Epoch: 16 March)

Event Time Altitude Azimuth Distance (km) Brightness Sun altitude
Rises 20:25:51 0° 291° (WNW) 4,681 12.7 -29.2°
Reaches altitude 10° 20:29:06 10° 297° (WNW) 3,692 11.8 -29.8°
Maximum altitude 20:37:59 47° 10° (N) 1,930 9.4 -31.6°
Enters shadow 20:39:36 44° 37° (NE) 2,016 9.3 -31.9°
